timestamp,wind_dir_avg,wind_spd_avg,wind_spd_max_dir,wind_spd_gust,battery_voltage,lat,long
2022-09-14 00:04:00+00:00,2.0,6.69,3.0,8.54,12.49,47.59359,-54.27349
2022-09-14 00:14:01+00:00,357.0,5.87,356.0,6.33,12.49,47.59359,-54.27349
2022-09-14 00:24:01+00:00,0.0,5.1,3.0,5.72,12.49,47.59359,-54.27349
2022-09-14 00:34:01+00:00,10.0,5.65,13.0,6.65,12.49,47.59359,-54.27349
2022-09-14 00:44:01+00:00,12.0,5.58,8.0,6.38,12.49,47.59359,-54.27349
2022-09-14 00:54:01+00:00,19.0,4.61,18.0,5.17,12.49,47.59359,-54.27349
2022-09-14 01:04:01+00:00,10.0,3.92,8.0,4.35,12.49,47.59359,-54.27349
2022-09-14 01:14:00+00:00,357.0,4.88,355.0,5.26,12.49,47.59359,-54.27349
2022-09-14 01:24:00+00:00,347.0,5.69,346.0,6.1,12.49,47.59359,-54.27349
2022-09-14 01:34:00+00:00,349.0,6.03,347.0,6.48,12.49,47.59359,-54.27349
2022-09-14 01:44:00+00:00,352.0,6.69,347.0,7.33,12.49,47.59359,-54.27349
2022-09-14 01:54:00+00:00,351.0,6.85,353.0,7.34,12.49,47.59359,-54.27349
2022-09-14 02:04:00+00:00,355.0,6.9,346.0,7.47,12.49,47.59359,-54.27349
2022-09-14 02:14:00+00:00,358.0,6.99,7.0,7.51,12.49,47.59359,-54.27349
2022-09-14 02:24:00+00:00,352.0,6.49,350.0,7.21,12.49,47.59359,-54.27349
2022-09-14 02:34:00+00:00,350.0,5.84,350.0,6.73,12.49,47.59359,-54.27349
2022-09-14 02:44:00+00:00,349.0,5.35,350.0,6.0,12.49,47.59359,-54.27349
2022-09-14 02:54:00+00:00,354.0,5.73,354.0,6.34,12.49,47.59359,-54.27349
2022-09-14 03:04:00+00:00,347.0,5.33,347.0,5.6,12.49,47.59359,-54.27349
2022-09-14 03:14:01+00:00,350.0,5.29,350.0,5.71,12.41,47.59359,-54.27349
2022-09-14 03:24:01+00:00,359.0,4.74,358.0,5.05,12.41,47.59359,-54.27349
2022-09-14 03:34:01+00:00,353.0,4.36,353.0,4.91,12.41,47.59359,-54.27349
2022-09-14 03:44:01+00:00,15.0,4.13,2.0,5.28,12.41,47.59359,-54.27349
2022-09-14 03:54:01+00:00,358.0,7.34,357.0,7.77,12.41,47.59359,-54.27349
2022-09-14 04:04:01+00:00,358.0,7.5,357.0,8.36,12.41,47.59359,-54.27349
2022-09-14 04:14:00+00:00,6.0,6.45,5.0,7.84,12.41,47.59359,-54.27349
2022-09-14 04:24:00+00:00,356.0,5.06,359.0,5.48,12.41,47.59359,-54.27349
2022-09-14 04:34:00+00:00,0.0,4.51,1.0,4.74,12.41,47.59359,-54.27349
2022-09-14 04:44:00+00:00,0.0,5.3,356.0,5.77,12.41,47.59359,-54.27349
2022-09-14 04:54:00+00:00,359.0,4.28,356.0,4.73,12.41,47.59359,-54.27349
2022-09-14 05:04:00+00:00,354.0,4.08,357.0,4.55,12.41,47.59359,-54.27349
2022-09-14 05:14:00+00:00,7.0,3.36,356.0,4.15,12.41,47.59359,-54.27349
2022-09-14 05:24:00+00:00,359.0,4.82,359.0,5.57,12.41,47.59359,-54.27349
2022-09-14 05:34:00+00:00,350.0,5.16,350.0,5.47,12.41,47.59359,-54.27349
2022-09-14 05:44:00+00:00,343.0,4.81,342.0,5.05,12.41,47.59359,-54.27349
2022-09-14 05:54:00+00:00,346.0,4.94,347.0,5.08,12.41,47.59359,-54.27349
2022-09-14 06:04:00+00:00,341.0,4.05,343.0,4.37,12.41,47.59359,-54.27349
2022-09-14 06:14:01+00:00,341.0,3.19,345.0,3.75,12.41,47.59359,-54.27349
2022-09-14 06:24:01+00:00,345.0,3.75,346.0,4.0,12.41,47.59359,-54.27349
2022-09-14 06:34:01+00:00,313.0,3.31,316.0,3.64,12.41,47.59359,-54.27349
2022-09-14 06:44:01+00:00,323.0,3.07,322.0,3.34,12.41,47.59359,-54.27349
2022-09-14 06:54:01+00:00,336.0,2.87,336.0,3.3,12.41,47.59359,-54.27349
2022-09-14 07:04:01+00:00,344.0,3.03,346.0,3.41,12.41,47.59359,-54.27349
2022-09-14 07:14:00+00:00,314.0,4.02,317.0,4.52,12.33,47.59359,-54.27349
2022-09-14 07:24:00+00:00,347.0,4.3,347.0,4.62,12.33,47.59359,-54.27349
2022-09-14 07:34:00+00:00,343.0,4.64,342.0,5.05,12.33,47.59359,-54.27349
2022-09-14 07:44:00+00:00,344.0,5.69,348.0,6.3,12.33,47.59359,-54.27349
2022-09-14 07:54:00+00:00,343.0,4.73,340.0,5.43,12.33,47.59359,-54.27349
2022-09-14 08:04:00+00:00,345.0,5.04,346.0,5.47,12.33,47.59359,-54.27349
2022-09-14 08:14:00+00:00,354.0,5.34,356.0,6.08,12.33,47.59359,-54.27349
2022-09-14 08:24:00+00:00,326.0,4.32,327.0,4.78,12.33,47.59359,-54.27349
2022-09-14 08:34:00+00:00,337.0,5.52,337.0,5.92,12.33,47.59359,-54.27349
2022-09-14 08:44:00+00:00,334.0,5.6,334.0,6.0,12.33,47.59359,-54.27349
2022-09-14 08:54:00+00:00,340.0,5.56,343.0,5.88,12.33,47.59359,-54.27349
2022-09-14 09:04:00+00:00,348.0,4.49,352.0,4.89,12.33,47.59359,-54.27349
2022-09-14 09:14:00+00:00,341.0,5.49,341.0,5.73,12.25,47.59359,-54.27349
2022-09-14 09:24:00+00:00,329.0,4.97,328.0,5.49,12.25,47.59359,-54.27349
2022-09-14 09:34:00+00:00,337.0,5.04,336.0,5.52,12.25,47.59359,-54.27349
2022-09-14 09:44:00+00:00,344.0,5.47,345.0,5.68,12.25,47.59359,-54.27349
2022-09-14 09:54:00+00:00,341.0,5.05,342.0,5.33,12.25,47.59359,-54.27349
2022-09-14 10:04:00+00:00,348.0,4.48,348.0,4.87,12.25,47.59359,-54.27349
2022-09-14 10:14:00+00:00,343.0,3.69,342.0,3.88,13.05,47.59359,-54.27349
2022-09-14 10:24:00+00:00,348.0,2.85,352.0,3.07,13.05,47.59359,-54.27349
2022-09-14 10:34:00+00:00,0.0,2.37,1.0,2.81,13.05,47.59359,-54.27349
2022-09-14 10:44:00+00:00,0.0,2.17,359.0,2.4,13.05,47.59359,-54.27349
2022-09-14 10:54:00+00:00,351.0,4.01,353.0,4.36,13.05,47.59359,-54.27349
2022-09-14 11:04:00+00:00,350.0,2.29,341.0,2.75,13.05,47.59359,-54.27349
2022-09-14 11:14:00+00:00,332.0,0.76,328.0,1.43,13.29,47.59359,-54.27349
2022-09-14 11:24:00+00:00,320.0,2.02,329.0,2.49,13.29,47.59359,-54.27349
2022-09-14 11:34:00+00:00,305.0,2.47,308.0,2.77,13.29,47.59359,-54.27349
2022-09-14 11:44:00+00:00,323.0,4.49,323.0,4.71,13.29,47.59359,-54.27349
2022-09-14 11:54:00+00:00,324.0,4.84,326.0,5.08,13.29,47.59359,-54.27349
2022-09-14 12:04:00+00:00,320.0,4.15,321.0,4.35,13.29,47.59359,-54.27349
2022-09-14 12:14:01+00:00,326.0,3.27,324.0,3.5,14.32,47.59359,-54.27349
2022-09-14 12:24:01+00:00,339.0,2.99,339.0,3.17,14.32,47.59359,-54.27349
2022-09-14 12:34:01+00:00,271.0,0.96,318.0,1.54,14.32,47.59359,-54.27349
2022-09-14 12:44:01+00:00,307.0,1.34,311.0,1.48,14.32,47.59359,-54.27349
2022-09-14 12:54:01+00:00,270.0,0.33,271.0,0.62,14.32,47.59359,-54.27349
2022-09-14 13:04:01+00:00,354.0,2.13,358.0,2.35,14.32,47.59359,-54.27349
2022-09-14 13:14:00+00:00,49.0,1.56,56.0,1.72,13.92,47.59359,-54.27349
2022-09-14 13:24:00+00:00,71.0,1.95,69.0,2.13,13.92,47.59359,-54.27349
2022-09-14 13:34:00+00:00,56.0,1.97,53.0,2.26,13.92,47.59359,-54.27349
2022-09-14 13:44:00+00:00,48.0,1.53,47.0,1.69,13.92,47.59359,-54.27349
2022-09-14 13:54:00+00:00,56.0,2.43,54.0,2.64,13.92,47.59359,-54.27349
2022-09-14 14:04:00+00:00,120.0,0.88,128.0,1.43,13.92,47.59359,-54.27349
2022-09-14 14:14:01+00:00,148.0,2.56,146.0,2.77,13.76,47.59359,-54.27349
2022-09-14 14:24:01+00:00,146.0,2.18,146.0,2.46,13.76,47.59359,-54.27349
2022-09-14 14:34:01+00:00,141.0,2.38,141.0,2.45,13.76,47.59359,-54.27349
2022-09-14 14:44:01+00:00,157.0,2.15,162.0,2.27,13.76,47.59359,-54.27349
2022-09-14 14:54:01+00:00,231.0,2.0,219.0,2.33,13.76,47.59359,-54.27349
2022-09-14 15:04:01+00:00,235.0,2.33,231.0,2.62,13.76,47.59359,-54.27349
2022-09-14 15:14:01+00:00,242.0,1.91,242.0,2.13,13.6,47.59359,-54.27349
2022-09-14 15:24:01+00:00,220.0,1.79,219.0,2.28,13.6,47.59359,-54.27349
2022-09-14 15:34:01+00:00,203.0,1.46,207.0,1.61,13.6,47.59359,-54.27349
2022-09-14 15:44:01+00:00,226.0,1.52,226.0,1.81,13.6,47.59359,-54.27349
2022-09-14 15:54:01+00:00,260.0,3.29,260.0,3.45,13.6,47.59359,-54.27349
2022-09-14 16:04:01+00:00,257.0,2.55,257.0,2.64,13.6,47.59359,-54.27349
2022-09-14 16:14:01+00:00,264.0,2.98,264.0,3.04,13.68,47.59359,-54.27349
2022-09-14 16:24:01+00:00,270.0,2.73,270.0,2.82,13.68,47.59359,-54.27349
2022-09-14 16:34:01+00:00,274.0,3.54,275.0,3.65,13.68,47.59359,-54.27349
2022-09-14 16:44:01+00:00,273.0,3.14,274.0,3.23,13.68,47.59359,-54.27349
2022-09-14 16:54:01+00:00,274.0,2.64,273.0,2.71,13.68,47.59359,-54.27349
2022-09-14 17:04:01+00:00,241.0,1.48,239.0,2.01,13.68,47.59359,-54.27349
2022-09-14 17:14:01+00:00,222.0,4.25,220.0,5.01,14.32,47.59359,-54.27349
2022-09-14 17:24:01+00:00,225.0,4.24,222.0,4.75,14.32,47.59359,-54.27349
2022-09-14 17:34:01+00:00,222.0,5.71,220.0,6.3,14.32,47.59359,-54.27349
2022-09-14 17:44:01+00:00,216.0,5.17,216.0,5.76,14.32,47.59359,-54.27349
2022-09-14 17:54:01+00:00,215.0,4.6,215.0,4.79,14.32,47.59359,-54.27349
2022-09-14 18:04:01+00:00,216.0,4.63,217.0,5.38,14.32,47.59359,-54.27349
2022-09-14 18:14:01+00:00,216.0,5.2,216.0,5.82,14.24,47.59359,-54.27349
2022-09-14 18:24:01+00:00,210.0,5.91,218.0,6.34,14.24,47.59359,-54.27349
2022-09-14 18:34:01+00:00,214.0,6.09,214.0,6.27,14.24,47.59359,-54.27349
2022-09-14 18:44:01+00:00,215.0,6.01,215.0,6.2,14.24,47.59359,-54.27349
2022-09-14 18:54:01+00:00,207.0,5.87,208.0,6.2,14.24,47.59359,-54.27349
2022-09-14 19:04:01+00:00,202.0,5.0,204.0,5.49,14.24,47.59359,-54.27349
2022-09-14 19:14:00+00:00,200.0,6.13,201.0,6.48,13.84,47.59359,-54.27349
2022-09-14 19:24:00+00:00,200.0,5.72,202.0,6.06,13.84,47.59359,-54.27349
2022-09-14 19:34:00+00:00,202.0,5.99,204.0,6.33,13.84,47.59359,-54.27349
2022-09-14 19:44:00+00:00,182.0,4.65,184.0,4.99,13.84,47.59359,-54.27349
2022-09-14 19:54:00+00:00,180.0,4.87,181.0,5.36,13.84,47.59359,-54.27349
2022-09-14 20:04:00+00:00,186.0,5.0,189.0,5.72,13.84,47.59359,-54.27349
2022-09-14 20:14:00+00:00,210.0,6.97,212.0,7.53,13.68,47.59359,-54.27349
2022-09-14 20:24:00+00:00,201.0,6.62,202.0,7.34,13.68,47.59359,-54.27349
2022-09-14 20:34:00+00:00,199.0,6.11,197.0,6.92,13.68,47.59359,-54.27349
2022-09-14 20:44:00+00:00,182.0,4.77,196.0,5.37,13.68,47.59359,-54.27349
2022-09-14 20:54:00+00:00,189.0,5.16,189.0,5.74,13.68,47.59359,-54.27349
2022-09-14 21:04:00+00:00,202.0,4.46,209.0,5.5,13.68,47.59359,-54.27349
2022-09-14 21:14:00+00:00,214.0,4.48,218.0,6.15,13.29,47.59359,-54.27349
2022-09-14 21:24:00+00:00,219.0,5.02,218.0,5.47,13.29,47.59359,-54.27349
2022-09-14 21:34:00+00:00,200.0,4.45,204.0,4.98,13.29,47.59359,-54.27349
2022-09-14 21:44:00+00:00,203.0,4.78,205.0,5.62,13.29,47.59359,-54.27349
2022-09-14 21:54:00+00:00,208.0,4.69,211.0,5.52,13.29,47.59359,-54.27349
2022-09-14 22:04:00+00:00,200.0,5.4,209.0,6.28,13.29,47.59359,-54.27349
2022-09-14 22:14:00+00:00,214.0,4.8,215.0,5.48,12.73,47.59359,-54.27349
2022-09-14 22:24:00+00:00,219.0,5.82,220.0,6.56,12.73,47.59359,-54.27349
2022-09-14 22:34:00+00:00,215.0,6.2,216.0,6.75,12.73,47.59359,-54.27349
2022-09-14 22:44:00+00:00,214.0,4.94,214.0,5.15,12.73,47.59359,-54.27349
2022-09-14 22:54:00+00:00,207.0,4.91,209.0,5.19,12.73,47.59359,-54.27349
2022-09-14 23:04:00+00:00,207.0,4.16,208.0,4.65,12.73,47.59359,-54.27349
2022-09-14 23:14:00+00:00,217.0,2.49,215.0,3.01,12.57,47.59359,-54.27349
2022-09-14 23:24:00+00:00,215.0,4.12,218.0,5.14,12.57,47.59359,-54.27349
2022-09-14 23:34:00+00:00,221.0,5.82,218.0,6.88,12.57,47.59359,-54.27349
2022-09-14 23:44:00+00:00,219.0,7.14,223.0,8.41,12.57,47.59359,-54.27349
2022-09-14 23:54:00+00:00,209.0,5.51,208.0,5.98,12.57,47.59359,-54.27349
